Philadelphia, PA

7:08 AM EST on February 24, 2017 (GMT -0500)
Northeast Philadelphia

Weather History for KPNE - June, 2013

Change the Weather History Date:

Wednesday, June 12, 2013

  Actual Average Record
Temperature  
Mean Temperature 74 °F -  
Max Temperature 82 °F 77 °F 93 °F (2015)
Min Temperature 66 °F 58 °F 53 °F (1999)
Cooling Degree Days 9    
Growing Degree Days 24 (Base 50)    
Moisture  
Dew Point 60 °F    
Average Humidity 61    
Maximum Humidity 100    
Minimum Humidity 42    
Precipitation  
Precipitation 0.00 in - - ()
Sea Level Pressure  
Sea Level Pressure 29.82 in    
Wind  
Wind Speed 10 mph (NW)    
Max Wind Speed 15 mph    
Max Gust Speed 23 mph    
Visibility 10 miles    
Events      
Averages and records for this station are not official NWS values.
T = Trace of Precipitation, MM = Missing Value Source: NWS Daily Summary

Daily Weather History Graph

Daily Weather History Graph

Search for Another Location

Airport or City:

Trip Planner

Search our weather history database for the weather conditions in past years. The results will help you decide how hot, cold, wet, or windy it might be!

Date:

Astronomy

Jun. 12, 2013 Rise Set
Actual Time 5:30 AM EDT 8:29 PM EDT
Civil Twilight 4:57 AM EDT 9:02 PM EDT
Nautical Twilight 4:16 AM EDT 9:44 PM EDT
Astronomical Twilight 3:27 AM EDT 10:32 PM EDT
Moon 9:07 AM EDT (6/12) 11:04 PM EDT (6/12)
Length of Visible Light 16h 04m
Length of Day
14h 59m
Waxing Crescent, 14% of the Moon is Illuminated
Jun 12
Waxing Crescent
Jun 16
First Quarter
Jun 23
Full
Jun 30
Last Quarter
Jul 8
New

Hourly Weather History & Observations

Time (EDT) Temp. Heat Index Dew Point Humidity Pressure Visibility Wind Dir Wind Speed Gust Speed Precip Events Conditions
12:54 AM 71.1 °F - - N/A% 29.79 in 10.0 mi West 10.4 mph 18.4 mph N/A   Clear
1:54 AM 70.0 °F - - N/A% 29.78 in 10.0 mi WNW 9.2 mph - N/A   Clear
2:54 AM 69.1 °F - - N/A% 29.78 in 10.0 mi West 10.4 mph - N/A   Clear
3:54 AM 68.0 °F - - N/A% 29.78 in 10.0 mi West 8.1 mph - N/A   Clear
4:54 AM 66.9 °F - - N/A% 29.80 in 10.0 mi WNW 4.6 mph - N/A   Clear
5:54 AM 66.9 °F - - N/A% 29.81 in 10.0 mi West 6.9 mph - N/A   Clear
6:54 AM 69.1 °F - 69.1 °F 100% 29.82 in 10.0 mi WNW 10.4 mph - N/A   Clear
7:54 AM 71.1 °F - 71.1 °F 100% 29.83 in 10.0 mi NW 12.7 mph - N/A   Clear
8:54 AM 73.0 °F - 71.1 °F 93% 29.84 in 10.0 mi WNW 15.0 mph 20.7 mph N/A   Clear
9:54 AM 75.0 °F - 69.1 °F 82% 29.83 in 10.0 mi NW 12.7 mph - N/A   Partly Cloudy
10:54 AM 75.9 °F - 57.0 °F 52% 29.83 in 10.0 mi NNW 15.0 mph 20.7 mph N/A   Clear
11:54 AM 78.1 °F - 57.9 °F 50% 29.83 in 10.0 mi West 15.0 mph 20.7 mph N/A   Clear
12:54 PM 80.1 °F 80.4 °F 57.0 °F 45% 29.83 in 10.0 mi WNW 10.4 mph 20.7 mph N/A   Scattered Clouds
1:54 PM 80.1 °F 80.2 °F 55.9 °F 43% 29.83 in 10.0 mi NNW 13.8 mph 23.0 mph N/A   Partly Cloudy
2:54 PM 82.9 °F 82.6 °F 57.9 °F 42% 29.82 in 10.0 mi NNW 10.4 mph 21.9 mph N/A   Clear
3:54 PM 82.0 °F 82.0 °F 57.9 °F 44% 29.81 in 10.0 mi NW 11.5 mph 18.4 mph N/A   Partly Cloudy
4:54 PM 80.1 °F 80.2 °F 55.9 °F 43% 29.81 in 10.0 mi North - - N/A   Clear
5:54 PM 79.0 °F - 55.0 °F 44% 29.83 in 10.0 mi WNW 10.4 mph - N/A   Clear
6:54 PM 78.1 °F - 55.0 °F 45% 29.82 in 10.0 mi WNW 4.6 mph - N/A   Clear
7:54 PM 75.0 °F - 55.9 °F 51% 29.84 in 10.0 mi North 4.6 mph - N/A   Clear
8:54 PM 73.0 °F - 55.9 °F 55% 29.85 in 10.0 mi Calm Calm - N/A   Clear
9:54 PM 71.1 °F - 57.9 °F 63% 29.86 in 10.0 mi Calm Calm - N/A   Clear
10:54 PM 69.1 °F - 59.0 °F 70% 29.85 in 10.0 mi NE 9.2 mph - N/A   Clear
11:54 PM 68.0 °F - 57.9 °F 70% 29.86 in 10.0 mi ESE 5.8 mph - N/A   Clear